Regional Weather Roundup
Issued by NWS

Home | Current Version | Previous Version | Graphics & Text | Print | Product List | Glossary On
Versions: 1 2 3 4 5 6 7 8 9 10 11 12 13 14 15 16 17 18 19 20 21 22 23 24 25 26 27 28 29 30 31 32 33 34 35 36 37 38 39 40 41 42 43 44 45 46 47 48 49 50
000
ASUS45 KTFX 021419
RWRMT
MONTANA HOURLY WEATHER ROUNDUP
NATIONAL WEATHER SERVICE GREAT FALLS MT
819 AM MDT TUE SEP 2 2014

NOTE: "FAIR" INDICATES FEW OR NO CLOUDS BELOW 12000 FEET WITH NO
SIGNIFICANT WEATHER AND/OR OBSTRUCTIONS TO VISIBILITY.

* THESE STATIONS ARE NOT UNDER NWS QUALITY CONTROL. THEY DO NOT
   REPORT WEATHER SUCH AS PRECIPITATION OR FOG.

MTZ001>007-043-021500-
WEST OF THE DIVIDE
CITY           SKY/WX    TMP DP  RH WIND       PRES   REMARKS
KALISPELL      PTSUNNY   41  39  93 CALM      29.91S
MISSOULA       PTCLDY    43  39  86 CALM      29.99S
BUTTE          PTSUNNY   37  34  89 SE5       30.04S WCI  33
MULLAN PASS    PTSUNNY   45  37  74 S8        29.97F
* LINCOLN      N/A       36  34  92 N/A        N/A
* LOOKOUT PASS N/A       41  38  89 SE3        N/A
* POLSON       N/A       47  39  74 SW2        N/A
* RONAN APT    CLOUDY    46  43  89 N/A        N/A
* SEELEY LAKE  N/A       34  33  96 N1         N/A
* THOMP F APT  PTCLDY    42  35  76 N3         N/A
$$

MTZ008-052>055-021500-
SOUTHWEST MONTANA
CITY           SKY/WX    TMP DP  RH WIND       PRES   REMARKS
BOZEMAN        PTCLDY    48  41  77 E3        30.00R
DILLON         PTCLDY    46  37  71 S14       30.02R
W YELLOWSTONE  SUNNY     39  36  89 CALM      30.12S
* THREE FORKS  PTCLDY    45  27  49 N/A        N/A
* BOULDER HILL N/A       46  30  54 S6         N/A
* MONIDA PASS  N/A       41  36  82 NE8        N/A
* RAYNOLDS PAS N/A       42  24  49 S14        N/A
* WHITEHALL    N/A       44  40  86 N5         N/A
* WISE RIVER   N/A       32  30  92 W5         N/A   WCI  27
$$

MTZ009>010-012-014-046-048-049-054-021500-
EAST SLOPES AND CENTRAL MONTANA
CITY           SKY/WX    TMP DP  RH WIND       PRES   REMARKS
CUT BANK       CLOUDY    57  39  51 W15       29.86S
GREAT FALLS    CLOUDY    55  39  55 SW9       29.88F
HELENA         CLOUDY    54  39  57 W6        29.97R
MALMSTROM AFB  CLOUDY    54  41  62 SW8       29.90S
* CONRAD       CLOUDY    48  45  89 N/A        N/A
* EAST GLACIER N/A       50  37  61 W16G21     N/A
* MONARCH      N/A       51  31  46 SW8G13     N/A
* PENDROY      N/A       53  37  55 SW9        N/A
* ROGERS PASS  N/A       49  35  59 SE11G17    N/A
* SAINT MARY   N/A       53  37  55 S7G15      N/A
* SWEET GRASS  N/A       54  37  53 W16G23     N/A
* WHITE SULPH  N/A       48  41  77 NE1        N/A
$$

MTZ011-013-016-021-035-040-045-047-050-051-021500-
NORTH CENTRAL MONTANA
CITY           SKY/WX    TMP DP  RH WIND       PRES   REMARKS
HAVRE          PTCLDY    54  39  57 SW9       29.84S
LEWISTOWN      PTSUNNY   48  39  71 E5        29.93S
* CHINOOK      PTCLDY    54  43  67 CALM      29.84R
* FORT BENTON  CLOUDY    54  41  62 SW3       29.88R
* CHESTER      N/A       47  38  71 N/A        N/A
* DENTON       N/A       56  41  57 SW9        N/A
* GEYSER       N/A       50  39  66 W4         N/A
* JUDITH GAP   N/A       53  39  59 S1         N/A
* LOMA         N/A       52  41  66 SW2        N/A
$$

MTZ017>020-022>027-061-062-021500-
NORTHEAST MONTANA
CITY           SKY/WX    TMP DP  RH WIND       PRES   REMARKS
GLASGOW        PTSUNNY   54  45  72 W6        29.82R
GLENDIVE       SUNNY     55  46  72 S6        29.86R
JORDAN         PTCLDY    54  45  72 W6        29.86S
SIDNEY         PTCLDY    63  46  54 W10G20    29.81S
WOLF POINT     CLOUDY    55  46  72 W5        29.81R
* BEAVER HILL  N/A       56  44  64 SW11       N/A
* CIRCLE       N/A       54  48  80 N/A        N/A
* LINDSAY DVD  N/A       58  42  55 W12G17     N/A
* NAVAJO       N/A       54  43  67 W16        N/A
$$

MTZ028>042-056>058-021500-
SOUTHCENTRAL AND SOUTHEAST MONTANA
CITY           SKY/WX    TMP DP  RH WIND       PRES   REMARKS
BAKER          PTCLDY    57  46  67 SW13      29.89R
BILLINGS       PTSUNNY   55  43  64 S7        29.94R
LIVINGSTON     SUNNY     48  37  66 NW9       29.97S
MILES CITY     PTSUNNY   55  45  69 SW8       29.88R
* LAUREL APT   PTSUNNY   48  39  71 N/A        N/A
* ROUNDUP APT  PTSUNNY   48  37  66 SW8        N/A
* ALZADA       N/A       60  42  52 NE2        N/A
* HYSHAM       N/A       55  41  59 W4         N/A
* LAME DEER    N/A       56  40  55 W6         N/A
* REED POINT   N/A       46  45  96 E1         N/A
* ROSCOE HILL  N/A       55  30  39 SE9        N/A
$$

REGIONAL REPORTS...DAKOTAS
CITY           SKY/WX    TMP DP  RH WIND       PRES   REMARKS
WILLISTON      PTCLDY    57  48  72 SW10      29.77S
DICKINSON      PTCLDY    57  46  67 W15       29.82R
BEACH          N/A       55  46  72 SW13      29.85S
CROSBY         SUNNY     57  54  90 SW8       29.74R
TIOGA          SUNNY     55  54  96 SW13      29.78S
WATFORD CITY   SUNNY     57  48  72 SW8       29.77S
BISMARCK       PTCLDY    57  50  78 SW6       29.84R
GRAND FORKS    PTSUNNY   57  52  83 SW3       29.78R
FARGO          SUNNY     59  52  78 SW10      29.83R
BUFFALO SD     PTSUNNY   55  46  72 W10       29.84S
RAPID CITY     SUNNY     55  45  69 SW8       29.95F
$$

REGIONAL REPORTS...WYOMING/IDAHO/WASHINGTON
CITY           SKY/WX    TMP DP  RH WIND       PRES   REMARKS
GILLETTE       SUNNY     55  45  69 S14       29.96S
SHERIDAN       PTCLDY    54  43  67 CALM      29.94R
CODY           PTCLDY   N/A N/A N/A N/A        N/A
YELLOWSTONE LA SUNNY     32  30  92 CALM      30.20R
SALMON         PTCLDY    43  39  86 CALM      30.04S
MULLAN PASS    PTSUNNY   45  37  74 S8        29.97S
SAND POINT     CLOUDY    50  50 100 CALM      29.87F
SPOKANE        PTSUNNY   52  39  61 S10       29.87S
$$

REGIONAL REPORTS...ALBERTA
CITY           SKY/WX    TMP DP  RH WIND       PRES   REMARKS
CALGARY        CLOUDY    50  39  66 S5        29.76S
LETHBRIDGE     PTSUNNY   54  43  67 SW9       29.79S
MEDICINE HAT   PTSUNNY   50  45  83 S3        29.78F
EDMONTON       PTSUNNY   48  46  93 SW5       29.74S
WATERTON GATE  N/A       55  39  55 SW9        N/A
CARDSTON       N/A       54  41  62 S5         N/A
MILK RIVER     N/A       52  41  66 SW6        N/A
$$

REGIONAL REPORTS...SASKATCHEWAN
CITY           SKY/WX    TMP DP  RH WIND       PRES   REMARKS
SWIFT CURRENT  SUNNY     48  45  89 W9        29.78R
MOOSE JAW      SUNNY     54  50  86 NW7       29.75F
REGINA         SUNNY     54  48  80 NE6       29.72R
VAL MARIE      N/A       50  45  83 SW2        N/A
ASSINIBOIA     N/A       52  45  77 W10        N/A
CORONACH       N/A       55  45  69 W9         N/A

$$




USA.gov is the U.S. government's official web portal to all federal, state and local government web resources and services.